Weather History for Jackson, KY

Change the Weather History Date:

Saturday, July 20, 2013

  Actual Average Record
Temperature  
Mean Temperature 79 °F 75 °F  
Max Temperature 88 °F 85 °F 96 °F (1986)
Min Temperature 70 °F 66 °F 53 °F (2009)
Degree Days  
Heating Degree Days 0 0  
Month to date heating degree days 0 0  
Since 1 June heating degree days 0 12  
Since 1 July heating degree days 0 0  
Cooling Degree Days 14 10  
Month to date cooling degree days 206 206  
Year to date cooling degree days 578 565  
Since 1 June cooling degree days 430 429  
Growing Degree Days 28 (Base 50)    
Moisture  
Dew Point 70 °F    
Average Humidity 80    
Maximum Humidity 100    
Minimum Humidity 59    
Precipitation  
Precipitation T in 0.15 in 1.41 in (1988)
Month to date precipitation 4.62 2.97  
Year to date precipitation 31.18 28.18  
Snow  
Snow 0.00 in 0.00 in - ()
Month to date snowfall 0.0 0.0  
Since 1 June snowfall 0.0 0.0  
Since 1 July snowfall 0.0 0.0  
Snow Depth 0.00 in    
Sea Level Pressure  
Sea Level Pressure 29.95 in    
Wind  
Wind Speed 1 mph (NW)    
Max Wind Speed 8 mph    
Max Gust Speed 16 mph    
Visibility 10 miles    
Events Rain , Thunderstorm    
T = Trace of Precipitation, MM = Missing Value Source: NWS Daily Summary

Daily Weather History Graph

Daily Weather History Graph

Search for Another Location

Airport:

Trip Planner

Search our weather history database for the weather conditions in past years. The results will help you decide how hot, cold, wet, or windy it might be!

Date:

Astronomy

Jul. 20, 2013 Rise Set
Actual Time 6:27 AM EDT 8:51 PM EDT
Civil Twilight 5:57 AM EDT 9:21 PM EDT
Nautical Twilight 5:20 AM EDT 9:57 PM EDT
Astronomical Twilight 4:40 AM EDT 10:38 PM EDT
Moon 6:53 PM EDT (7/20) 4:06 AM EDT (7/20)
Length of Visible Light 15h 23m
Length of Day
14h 23m
Waxing Gibbous, 93% of the Moon is Illuminated
Jul 20
Waxing Gibbous
Jul 22
Full
Jul 29
Last Quarter
Aug 6
New
Aug 14
First Quarter

Hourly Weather History & Observations

Time (EDT) Temp. Heat Index Dew Point Humidity Pressure Visibility Wind Dir Wind Speed Gust Speed Precip Events Conditions
12:53 AM 73.0 °F - 70.0 °F 90% 29.97 in 10.0 mi Calm Calm - N/A   Clear
1:53 AM 72.0 °F - 69.1 °F 91% 29.97 in 10.0 mi Calm Calm - N/A   Clear
2:53 AM 71.1 °F - 69.1 °F 93% 29.96 in 8.0 mi Calm Calm - N/A   Clear
3:53 AM 71.1 °F - 69.1 °F 93% 29.95 in 8.0 mi Calm Calm - N/A   Clear
4:53 AM 70.0 °F - 69.1 °F 97% 29.95 in 7.0 mi Variable 3.5 mph - N/A   Clear
5:53 AM 70.0 °F - 69.1 °F 97% 29.95 in 7.0 mi Calm Calm - N/A   Partly Cloudy
6:53 AM 71.1 °F - 68.0 °F 90% 29.96 in 9.0 mi Calm Calm - N/A   Clear
7:53 AM 72.0 °F - 69.1 °F 91% 29.98 in 10.0 mi Calm Calm - N/A   Scattered Clouds
8:53 AM 75.0 °F - 70.0 °F 84% 29.99 in 10.0 mi Calm Calm - N/A   Clear
9:53 AM 78.1 °F - 72.0 °F 81% 30.00 in 10.0 mi Calm Calm - N/A   Mostly Cloudy
10:53 AM 82.0 °F 86.7 °F 72.0 °F 71% 29.99 in 10.0 mi Calm Calm - N/A   Partly Cloudy
11:53 AM 82.9 °F 88.8 °F 73.0 °F 72% 29.99 in 10.0 mi Variable 4.6 mph - N/A   Partly Cloudy
12:53 PM 84.9 °F 91.4 °F 73.0 °F 67% 29.97 in 10.0 mi Variable 5.8 mph - N/A   Scattered Clouds
1:53 PM 82.9 °F 88.0 °F 72.0 °F 69% 29.95 in 10.0 mi Variable 5.8 mph - N/A   Mostly Cloudy
2:03 PM 80.6 °F 84.6 °F 71.6 °F 74% 30.00 in 10.0 mi NW 4.6 mph - 0.00 in Rain , Thunderstorm Light Rain
2:27 PM 82.4 °F 87.2 °F 71.6 °F 70% 29.98 in 10.0 mi Calm Calm - 0.00 in Thunderstorm Mostly Cloudy
2:50 PM 86.0 °F 93.4 °F 73.4 °F 66% 29.98 in 10.0 mi Variable 3.5 mph - 0.00 in   Partly Cloudy
2:53 PM 86.0 °F 93.0 °F 73.0 °F 65% 29.93 in 10.0 mi Calm Calm - 0.00 in   Partly Cloudy
3:53 PM 87.1 °F 93.6 °F 72.0 °F 61% 29.90 in 10.0 mi Variable 4.6 mph - N/A   Mostly Cloudy
4:53 PM 84.9 °F 89.4 °F 70.0 °F 61% 29.90 in 10.0 mi Calm Calm - N/A   Partly Cloudy
5:53 PM 84.9 °F 90.1 °F 71.1 °F 63% 29.90 in 10.0 mi Variable 3.5 mph - N/A   Mostly Cloudy
6:53 PM 84.9 °F 88.2 °F 68.0 °F 57% 29.90 in 10.0 mi Variable 3.5 mph - N/A   Clear
7:53 PM 82.9 °F 86.5 °F 69.1 °F 63% 29.90 in 10.0 mi Calm Calm - N/A   Clear
8:53 PM 79.0 °F - 68.0 °F 69% 29.91 in 10.0 mi Calm Calm - N/A   Clear
9:53 PM 79.0 °F - 68.0 °F 69% 29.93 in 10.0 mi Calm Calm - N/A   Clear
10:53 PM 78.1 °F - 69.1 °F 74% 29.94 in 10.0 mi Calm Calm - N/A   Clear
11:53 PM 75.9 °F - 70.0 °F 82% 29.93 in 10.0 mi Calm Calm - N/A   Clear